Live-Position
3D-Globus wird geladen...
Über Starlink 3232
Group: 3 satellites
Beschreibung wird geladen...
Nächste Überflüge
Passes for default location (London). Set your location on the main map for personalized predictions.
Höhenverlauf
Loading altitude history...
No altitude history available
Zweizeiliger Elementsatz
1 50809U 22001G 26121.73618323 .00001080 00000-0 85951-4 0 9993
2 50809 53.2177 280.9870 0001229 95.9845 264.1287 15.08838479238553
Epoch: 1. Mai 2026 •
Age: 9 hours
Aktueller Status
Höhe 556.6 km
Geschwindigkeit 7.58 km/s
Subsatellitenpunkt -46.86°S,
37.06°W
Startdatum 6. Jan. 2022
Alter 4.3 years
Typ internet
Startgruppe
Falcon 9 •
Group 4-5 •
40 satellites
Starlink 3323
50804
Starlink 3333 50805
Starlink 3335 50806
Starlink 3355 50808
Starlink 3338 50812
Starlink 3349 50813
Starlink 3324 50814
Starlink 3234 50815
Starlink 3342 50816
Starlink 3341 50817
Starlink 3336 50818
Starlink 3327 50819
Starlink 3339 50820
Starlink 3346 50821
Starlink 3343 50822
Starlink 3334 50823
Starlink 3332 50825
Starlink 3329 50827
Starlink 3290 50828
Starlink 3294 50829
...and 19 more
Technische Details
Klassifizierung Payload
Masse 297.00 kg
Trockenmasse 275.00 kg
Gesamtmasse 297.00 kg
Länge 0.20 m
Durchmesser 2.80 m
Spannweite 9.00 m
Form Box + pan
Hersteller SPXS
Bus-Typ Starlink
Phasenstatus In Orbit
Besitzer/Staat SPXS/US
Most Searched
Loading...